STARLINK-34672, 65894

Orbit data source: Space-Track

STARLINK-34672, 65894 is a payload satellite owned by SpaceX/Seattle (US) in LEO that was launched on Tue, 07 Oct 2025 UTC via an FALCON 9 launch vehicle from the Air Force Eastern Test Range (AFETR). Payload-class satellites include a variety of spacecraft equipped with specific instruments for various scientific and technological missions. These include communications satellites like Starlink; space stations such as the ISS; scientific satellites like the Hubble; Earth observation satellites from companies like Planet Labs, Umbra, and HawkEye 360; GPS; miniature CubeSats for education and research; and military/defense satellites.

Loading next visibility...
Identifier
65894, 2025-224N
Orbit
LEO
Country
Flag of USUS
Related business
Manufacturer
SpaceX/Seattle
Mission
Operational Commercial Communications
Bus & Motor
STARLINK V2MO, Unknown motor
Mass
575 kg wet, ~530 kg dry
Launch date (UTC)
2025-10-07 (4 months ago)
Launch vehicle
FALCON 9
Launch site
Air Force Eastern Test Range (AFETR)
Object type
Payload
Rocket body
Debris
Shape & HBR
Box + 2 Pan, 17.7 m
Radar Cross Section
36.964 m²

Expand to show TLE details & history
Last TLE update: 15 hours ago

TLE from 15 hours ago
0 STARLINK-34672
1 65894U 25224N   26039.76189516  .00032604  00000-0  11081-2 0  9998
2 65894  53.1577 145.8320 0001101 103.8396 256.2727 15.30200681 20445
Epoch: 2026-02-08T18:17Z
TLE epoch observation values (Epoch: 2026-02-08T18:17:07.741Z)
Latitude
-0.00006°
Longitude
92.68328°
Altitude
476.292 km
Speed
7.629 km/s
True Right ascension
09h 43m 19s
True Declination
0° 00' 00"
Sunlit
Object was in full shadow at epoch
Visualization orbit readout
Latitude
Unknown
Longitude
Unknown
Altitude
Unknown
Speed
Unknown
Apparent Right ascension
Unknown
Apparent Declination
Unknown
Sunlit
N/A
Visualization observer readout
Local Sidereal Time
11:08:57
Azimuth
Unknown
Elevation
Unknown
Doppler factor
Unknown
Orbital elements
Apogee altitude
476.224 km
Perigee altitude
474.715 km
Semi-major axis
6,853.607 km
Eccentricity
0.00011
Inclination
53.1577°
RAAN
145.832°
Arg. of periapsis
103.8396°
True anomaly
256.26044°
Mean anomaly
256.2727°
Eccentric anomaly
256.26657°
Mean motion
3.82529 °/min
Orbital period
94.11 mins
BSTAR
0.0011081
Loading maneuver chart data...
Computing Atmospheric mass density...
Loading historical data...
Loading historical data...
Loading historical data...
Loading historical data...
Loading historical data...
Loading historical data...
Loading historical data...

Documentation

Showing up to 5 results
|